CW4498 Weather Reports


time (UTC)temp
C
wind
direction
speed
KPH
gust
KPH
rain 1hr
cm
rain 24hr
cm
rain mn
cm
humidity
%
barometer
mb
20260831001606 18 27 1.6 11.3 0.00 0.00 0.00 63 1019.9
20260830234558 18 58 0.0 8.0 0.00 0.00 0.00 63 1019.9
20260830233105 18 96 1.6 8.0 0.00 0.00 0.00 61 1020.3
20260830231607 18 30 1.6 8.0 0.00 0.00 0.00 62 1020.2
20260830230057 19 46 3.2 8.0 0.00 0.00 0.00 58 1020.1
20260830224616 20 355 3.2 9.7 0.00 0.05 0.00 52 1019.8
20260830223057 22 345 0.0 1.6 0.00 0.05 0.00 37 1019.3
20260830221603 22 154 1.6 9.7 0.00 0.05 0.00 37 1019.0
20260830220101 22 253 3.2 11.3 0.00 0.05 0.00 37 1018.7
20260830214559 22 107 3.2 6.4 0.00 0.05 0.00 46 1018.8
20260830213052 22 117 0.0 1.6 0.00 0.05 0.00 45 1018.8
20260830211554 23 112 0.0 1.6 0.00 0.05 0.00 44 1018.5
20260830210100 23 111 0.0 3.2 0.00 0.05 0.00 43 1018.4
20260830204554 23 103 0.0 4.8 0.00 0.05 0.00 44 1018.1
20260830203051 23 66 3.2 9.7 0.00 0.05 0.00 44 1018.3
20260830201550 23 117 4.8 14.5 0.00 0.05 0.00 44 1018.3
20260830200050 23 87 3.2 11.3 0.00 0.05 0.00 42 1018.5
20260830194550 23 134 4.8 12.9 0.00 0.05 0.00 39 1018.4
20260830193050 24 115 4.8 11.3 0.00 0.05 0.00 41 1018.7
20260830191549 24 61 4.8 11.3 0.00 0.05 0.00 39 1018.7
20260830190047 23 107 3.2 11.3 0.00 0.05 0.00 39 1018.8
20260830184543 23 113 1.6 8.0 0.00 0.05 0.00 43 1019.1
20260830183041 22 128 3.2 14.5 0.00 0.05 0.00 42 1019.2
20260830181539 22 108 4.8 8.0 0.00 0.05 0.00 43 1019.3
20260830180042 22 120 0.0 8.0 0.00 0.05 0.00 46 1019.3
20260830174541 22 128 1.6 4.8 0.00 0.05 0.00 45 1019.4
20260830173040 22 113 0.0 4.8 0.00 0.05 0.00 44 1019.6
20260830171534 21 98 0.0 1.6 0.00 0.05 0.00 47 1019.6
20260830170030 20 103 0.0 0.0 0.00 0.05 0.00 51 1019.8
20260830164551 20 113 0.0 1.6 0.00 0.05 0.00 54 1019.6
20260830163027 18 314 0.0 0.0 0.00 0.05 0.00 59 1019.7
20260830161517 18 313 0.0 1.6 0.00 0.05 0.00 58 1019.6
20260830160016 17 273 0.0 6.4 0.00 0.05 0.00 61 1019.5
20260830154516 16 295 0.0 1.6 0.00 0.05 0.00 63 1019.7
20260830153014 16 294 0.0 0.0 0.00 0.05 0.00 62 1019.3
20260830151515 16 294 0.0 0.0 0.00 0.05 0.00 64 1019.1
20260830150015 16 294 0.0 0.0 0.00 0.05 0.00 62 1019.0
20260830144516 16 294 0.0 0.0 0.00 0.05 0.00 63 1019.1
20260830143013 16 294 0.0 3.2 0.00 0.05 0.00 64 1019.0
20260830141526 16 273 0.0 0.0 0.00 0.05 0.00 64 1018.9
20260830140012 16 273 0.0 0.0 0.00 0.05 0.00 63 1019.4
20260830134520 15 273 0.0 0.0 0.00 0.05 0.00 64 1019.0
20260830133011 15 273 0.0 0.0 0.00 0.05 0.00 65 1018.9
20260830131510 15 273 0.0 0.0 0.00 0.05 0.00 64 1019.0
20260830130015 15 279 0.0 0.0 0.00 0.05 0.00 64 1018.9
20260830124509 15 280 0.0 3.2 0.00 0.05 0.00 64 1018.8
20260830123007 15 117 0.0 3.2 0.00 0.05 0.00 63 1018.4
20260830121506 15 117 0.0 1.6 0.00 0.05 0.00 62 1018.1
20260830120006 15 264 0.0 0.0 0.00 0.05 0.00 62 1018.0
20260830114506 15 264 0.0 4.8 0.00 0.05 0.00 62 1017.8
20260830113005 15 122 0.0 1.6 0.00 0.05 0.00 62 1017.6
20260830111504 15 122 0.0 0.0 0.00 0.05 0.00 63 1017.5
20260830110004 15 122 0.0 0.0 0.00 0.05 0.00 62 1017.7
20260830104501 15 123 0.0 0.0 0.00 0.05 0.00 61 1017.7
20260830103058 16 122 0.0 0.0 0.00 0.05 0.00 60 1017.5
20260830101600 17 123 0.0 4.8 0.00 0.05 0.00 57 1017.6
20260830100058 17 131 0.0 6.4 0.00 0.05 0.00 56 1017.9
20260830094558 17 159 1.6 9.7 0.00 0.05 0.00 57 1017.9
20260830093107 16 267 0.0 3.2 0.00 0.05 0.00 59 1017.9
20260830091558 16 118 1.6 6.4 0.00 0.05 0.00 60 1017.9
20260830090058 16 163 1.6 9.7 0.00 0.05 0.00 62 1017.9
20260830084603 16 121 1.6 6.4 0.00 0.05 0.00 61 1017.8
20260830083055 16 107 0.0 1.6 0.00 0.05 0.00 61 1017.6
20260830081600 16 106 0.0 0.0 0.00 0.05 0.00 60 1017.4
20260830080052 16 106 0.0 0.0 0.00 0.05 0.00 59 1017.6
20260830074604 16 106 0.0 0.0 0.00 0.05 0.00 59 1017.5
20260830073052 16 106 0.0 1.6 0.00 0.05 0.00 59 1017.6
20260830071555 17 106 0.0 1.6 0.00 0.05 0.00 57 1017.8
20260830070046 17 351 0.0 4.8 0.00 0.05 0.00 56 1018.0
20260830064545 17 292 3.2 11.3 0.00 0.05 0.00 57 1018.1
20260830063045 17 317 1.6 8.0 0.00 0.05 0.00 58 1018.2
20260830061543 17 15 3.2 8.0 0.00 0.05 0.00 58 1018.2
20260830060050 17 36 0.0 4.8 0.00 0.05 0.00 57 1018.2
20260830054550 17 349 1.6 8.0 0.00 0.05 0.05 57 1018.1
20260830053046 18 336 3.2 9.7 0.00 0.05 0.05 55 1018.2
20260830051541 18 28 1.6 8.0 0.00 0.05 0.05 53 1018.7
20260830050038 19 275 3.2 8.0 0.00 0.05 0.05 50 1018.9
20260830044537 20 44 1.6 6.4 0.00 0.05 0.05 45 1019.0
20260830043036 20 264 0.0 1.6 0.00 0.05 0.05 39 1018.6
20260830041542 21 144 0.0 4.8 0.00 0.05 0.05 36 1018.4
20260830040041 22 269 0.0 4.8 0.00 0.05 0.05 33 1018.5
20260830034535 22 275 0.0 3.2 0.00 0.05 0.05 35 1018.6
20260830033034 22 321 3.2 9.7 0.00 0.05 0.05 36 1018.5
20260830031533 21 298 1.6 9.7 0.00 0.05 0.05 37 1018.5
20260830030054 21 268 0.0 4.8 0.00 0.05 0.05 40 1018.4
20260830024535 21 126 0.0 1.6 0.00 0.05 0.05 39 1018.3
20260830023033 21 125 0.0 3.2 0.00 0.05 0.05 38 1017.8
20260830021535 22 334 0.0 8.0 0.00 0.05 0.05 37 1017.5
20260830020036 22 277 6.4 22.5 0.00 0.05 0.05 36 1017.2
20260830014533 23 284 8.0 27.4 0.00 0.05 0.05 34 1017.0
20260830013030 23 292 9.7 35.4 0.00 0.05 0.05 34 1017.1
20260830011530 23 257 8.0 20.9 0.00 0.05 0.05 34 1017.0
20260830010030 23 260 9.7 27.4 0.00 0.05 0.05 32 1016.9
20260830004529 23 283 12.9 30.6 0.00 0.05 0.05 33 1016.6
20260830003032 24 186 8.0 14.5 0.00 0.05 0.05 33 1016.7